When you browse on this site, cookies collect data to enhance your experience and personalize the content and advertising you see.
Visit our Privacy Policy to learn more. By continuing to use the site, you agree to this use of cookies and data.
  • In United Kingdom
  • List of Countries
  • For 7 days
  • Water Temperature
  • Weather Map
  • Weather Widgets
  • user-avatar
    Login

    Hourly Weather Hınıs

    Today, 25 August, Sunday

    Time Temperature Precipitation Wind Pressure Humidity
    00:00 +15°C° 0 mm 1 mps 623 mmHg 74%
    01:00 +14°C° 0 mm 1 mps 623 mmHg 75%
    02:00 +14°C° 0 mm 1 mps 623 mmHg 76%
    03:00 +13°C° 0 mm 1 mps 623 mmHg 77%
    04:00 +13°C° 0 mm 1 mps 623 mmHg 77%
    05:00 +13°C° 0 mm 1 mps 623 mmHg 77%
    06:00 +13°C° 0 mm 1 mps 623 mmHg 76%
    07:00 +18°C° 0 mm 1 mps 624 mmHg 63%
    08:00 +20°C° 0 mm 0 mps 626 mmHg 49%
    09:00 +23°C° 0 mm 0 mps 627 mmHg 35%
    10:00 +27°C° 0 mm 1 mps 627 mmHg 30%
    11:00 +28°C° 0 mm 2 mps 627 mmHg 25%
    12:00 +30°C° 0 mm 2 mps 627 mmHg 20%
    13:00 +31°C° 0 mm 3 mps 627 mmHg 19%
    14:00 +31°C° 0 mm 3 mps 627 mmHg 17%
    15:00 +33°C° 0 mm 4 mps 627 mmHg 16%
    16:00 +32°C° 0 mm 4 mps 627 mmHg 17%
    17:00 +30°C° 0 mm 4 mps 626 mmHg 18%
    18:00 +29°C° 0 mm 4 mps 626 mmHg 19%
    19:00 +26°C° 0 mm 3 mps 625 mmHg 27%
    20:00 +23°C° 0 mm 2 mps 624 mmHg 35%
    21:00 +19°C° 0 mm 2 mps 624 mmHg 43%
    22:00 +18°C° 0 mm 2 mps 624 mmHg 50%
    23:00 +18°C° 0 mm 1 mps 623 mmHg 58%

    Tomorrow, 26 August, Monday

    Time Temperature Precipitation Wind Pressure Humidity
    00:00 +16°C° 0 mm 1 mps 623 mmHg 65%
    01:00 +16°C° 0 mm 1 mps 623 mmHg 68%
    02:00 +15°C° 0 mm 1 mps 623 mmHg 72%
    03:00 +15°C° 0 mm 1 mps 623 mmHg 75%
    04:00 +15°C° 0 mm 1 mps 623 mmHg 75%
    05:00 +15°C° 0 mm 1 mps 623 mmHg 75%
    06:00 +15°C° 0 mm 1 mps 623 mmHg 76%
    07:00 +19°C° 0 mm 1 mps 624 mmHg 63%
    08:00 +23°C° 0 mm 1 mps 625 mmHg 50%
    09:00 +26°C° 0 mm 1 mps 627 mmHg 38%
    10:00 +28°C° 0 mm 2 mps 627 mmHg 31%
    11:00 +30°C° 0 mm 3 mps 627 mmHg 25%
    12:00 +33°C° 0 mm 3 mps 627 mmHg 19%
    13:00 +33°C° 0 mm 4 mps 627 mmHg 17%
    14:00 +34°C° 0 mm 5 mps 627 mmHg 16%
    15:00 +34°C° 0 mm 5 mps 627 mmHg 14%
    16:00 +33°C° 0 mm 5 mps 626 mmHg 16%
    17:00 +32°C° 0 mm 5 mps 626 mmHg 18%
    18:00 +30°C° 0 mm 5 mps 626 mmHg 20%
    19:00 +27°C° 0.1 mm 4 mps 625 mmHg 28%
    20:00 +24°C° 0.1 mm 2 mps 625 mmHg 35%
    21:00 +21°C° 0.1 mm 1 mps 624 mmHg 43%
    22:00 +20°C° 0 mm 1 mps 624 mmHg 49%
    23:00 +19°C° 0 mm 1 mps 623 mmHg 54%

    Day after tomorrow, 27 August, Tuesday

    Time Temperature Precipitation Wind Pressure Humidity
    00:00 +16°C° 0 mm 1 mps 623 mmHg 60%
    01:00 +16°C° 0 mm 1 mps 623 mmHg 64%
    02:00 +15°C° 0 mm 1 mps 622 mmHg 68%
    03:00 +15°C° 0 mm 1 mps 622 mmHg 72%
    04:00 +14°C° 0 mm 1 mps 622 mmHg 73%
    05:00 +14°C° 0 mm 1 mps 622 mmHg 75%
    06:00 +13°C° 0 mm 1 mps 622 mmHg 77%
    07:00 +18°C° 0 mm 1 mps 623 mmHg 62%
    08:00 +22°C° 0 mm 1 mps 624 mmHg 47%
    09:00 +26°C° 0 mm 1 mps 625 mmHg 31%
    10:00 +28°C° 0 mm 3 mps 626 mmHg 25%
    11:00 +30°C° 0 mm 4 mps 626 mmHg 19%
    12:00 +33°C° 0 mm 6 mps 626 mmHg 13%
    13:00 +33°C° 0 mm 7 mps 626 mmHg 12%
    14:00 +33°C° 0 mm 8 mps 626 mmHg 11%
    15:00 +34°C° 0 mm 9 mps 626 mmHg 9%
    16:00 +33°C° 0 mm 8 mps 625 mmHg 10%
    17:00 +30°C° 0 mm 7 mps 625 mmHg 11%
    18:00 +29°C° 0 mm 5 mps 624 mmHg 12%
    19:00 +26°C° 0 mm 4 mps 624 mmHg 16%
    20:00 +22°C° 0 mm 3 mps 623 mmHg 19%
    21:00 +18°C° 0 mm 2 mps 622 mmHg 23%
    22:00 +18°C° 0 mm 2 mps 622 mmHg 32%
    23:00 +17°C° 0 mm 2 mps 622 mmHg 41%

    28 August, Wednesday

    Time Temperature Precipitation Wind Pressure Humidity
    00:00 +16°C° 0 mm 2 mps 622 mmHg 50%
    01:00 +16°C° 0 mm 2 mps 622 mmHg 58%
    02:00 +15°C° 0 mm 1 mps 622 mmHg 66%
    03:00 +14°C° 0 mm 1 mps 621 mmHg 74%
    04:00 +14°C° 0 mm 1 mps 622 mmHg 75%
    05:00 +14°C° 0 mm 1 mps 622 mmHg 76%
    06:00 +14°C° 0 mm 1 mps 622 mmHg 77%
    07:00 +18°C° 0 mm 1 mps 623 mmHg 66%
    08:00 +21°C° 0 mm 1 mps 624 mmHg 54%
    09:00 +24°C° 0 mm 1 mps 625 mmHg 43%
    10:00 +26°C° 0 mm 1 mps 626 mmHg 36%
    11:00 +28°C° 0 mm 1 mps 626 mmHg 28%
    12:00 +30°C° 0 mm 1 mps 626 mmHg 21%
    13:00 +31°C° 0 mm 3 mps 626 mmHg 19%
    14:00 +32°C° 0 mm 4 mps 626 mmHg 16%
    15:00 +33°C° 0 mm 5 mps 626 mmHg 14%
    16:00 +32°C° 0 mm 5 mps 626 mmHg 16%
    17:00 +30°C° 0 mm 5 mps 625 mmHg 17%
    18:00 +29°C° 0 mm 5 mps 625 mmHg 19%
    19:00 +26°C° 0 mm 4 mps 624 mmHg 27%
    20:00 +23°C° 0 mm 2 mps 623 mmHg 36%
    21:00 +19°C° 0 mm 1 mps 622 mmHg 44%
    22:00 +18°C° 0 mm 1 mps 622 mmHg 50%
    23:00 +18°C° 0 mm 1 mps 622 mmHg 57%

    29 August, Thursday

    Time Temperature Precipitation Wind Pressure Humidity
    00:00 +16°C° 0 mm 1 mps 622 mmHg 63%
    01:00 +15°C° 0 mm 1 mps 622 mmHg 66%
    02:00 +14°C° 0 mm 0 mps 621 mmHg 69%
    03:00 +13°C° 0 mm 0 mps 621 mmHg 72%
    04:00 +13°C° 0 mm 0 mps 621 mmHg 72%
    05:00 +13°C° 0 mm 0 mps 621 mmHg 72%
    06:00 +13°C° 0 mm 0 mps 621 mmHg 73%
    07:00 +19°C° 0 mm 1 mps 623 mmHg 57%
    08:00 +23°C° 0 mm 1 mps 624 mmHg 42%
    09:00 +27°C° 0 mm 2 mps 625 mmHg 26%
    10:00 +29°C° 0 mm 4 mps 626 mmHg 23%
    11:00 +32°C° 0 mm 6 mps 626 mmHg 20%
    12:00 +34°C° 0 mm 8 mps 626 mmHg 17%
    13:00 +34°C° 0 mm 9 mps 626 mmHg 17%
    14:00 +34°C° 0 mm 10 mps 625 mmHg 17%
    15:00 +34°C° 0 mm 10 mps 625 mmHg 17%
    16:00 +33°C° 0 mm 9 mps 625 mmHg 18%
    17:00 +32°C° 0 mm 7 mps 624 mmHg 19%
    18:00 +30°C° 0 mm 6 mps 624 mmHg 20%
    19:00 +27°C° 0.1 mm 5 mps 623 mmHg 26%
    20:00 +23°C° 0.1 mm 4 mps 623 mmHg 31%
    21:00 +20°C° 0.1 mm 2 mps 622 mmHg 37%
    22:00 +20°C° 0 mm 2 mps 622 mmHg 41%
    23:00 +19°C° 0 mm 2 mps 621 mmHg 45%

    30 August, Friday

    Time Temperature Precipitation Wind Pressure Humidity
    00:00 +19°C° 0 mm 1 mps 621 mmHg 49%
    01:00 +18°C° 0 mm 1 mps 621 mmHg 53%
    02:00 +16°C° 0 mm 1 mps 620 mmHg 58%
    03:00 +15°C° 0 mm 1 mps 620 mmHg 63%
    04:00 +15°C° 0.1 mm 1 mps 620 mmHg 62%
    05:00 +15°C° 0.1 mm 1 mps 620 mmHg 60%
    06:00 +15°C° 0.1 mm 1 mps 620 mmHg 58%
    07:00 +19°C° 0 mm 2 mps 622 mmHg 48%
    08:00 +22°C° 0 mm 3 mps 623 mmHg 39%
    09:00 +27°C° 0 mm 3 mps 624 mmHg 29%
    10:00 +29°C° 0 mm 5 mps 624 mmHg 25%
    11:00 +30°C° 0 mm 7 mps 624 mmHg 22%
    12:00 +33°C° 0 mm 9 mps 624 mmHg 19%
    13:00 +33°C° 0 mm 9 mps 624 mmHg 19%
    14:00 +33°C° 0 mm 10 mps 624 mmHg 18%
    15:00 +33°C° 0 mm 10 mps 623 mmHg 18%
    16:00 +32°C° 0 mm 8 mps 623 mmHg 18%
    17:00 +30°C° 0 mm 7 mps 623 mmHg 19%
    18:00 +28°C° 0 mm 5 mps 622 mmHg 19%
    19:00 +25°C° 0 mm 4 mps 622 mmHg 28%
    20:00 +21°C° 0 mm 3 mps 622 mmHg 37%
    21:00 +18°C° 0 mm 2 mps 621 mmHg 46%
    22:00 +17°C° 0 mm 2 mps 621 mmHg 55%
    23:00 +16°C° 0 mm 2 mps 621 mmHg 65%
    Show more